Regional Weather Roundup
Issued by NWS

Home | Current Version | Previous Version | Text Only | Print | Product List | Glossary Off
Versions: 1 2 3 4 5 6 7 8 9 10 11 12 13 14 15 16 17 18 19 20 21 22 23 24 25 26 27

000
ASUS45 KPSR 242010
RWRAZ

ARIZONA HOURLY REGIONAL WEATHER ROUNDUP
NATIONAL WEATHER SERVICE PHOENIX AZ
100 PM MST SAT SEP 24 2016

NOTE: FAIR INDICATES FEW OR NO CLOUDS BELOW 12,000 FEET WITH NO
SIGNIFICANT WEATHER AND/OR OBSTRUCTIONS TO VISIBILITY.

AZZ001>003-036-242100-
NORTHWEST ARIZONA

CITY           SKY/WX    TMP DP  RH WIND       PRES   REMARKS
BULLHEAD CITY  SUNNY     86  32  14 N20G25    30.01F
KINGMAN        SUNNY     77  32  19 NE8       30.15S
$$

AZZ004>008-015-016-018-242100-
NORTH CENTRAL ARIZONA

CITY           SKY/WX    TMP DP  RH WIND       PRES   REMARKS
GRAND CANYON   SUNNY     61  32  33 E8        30.27S
PRESCOTT       MOSUNNY   69  33  26 N9        30.19F
FLAGSTAFF      SUNNY     61  29  29 NE13G23   30.25S
PAYSON         SUNNY     72  25  17 W8        30.18F
PAGE           SUNNY     69  31  24 E7        30.17F
$$

AZZ009>014-017-242100-
NORTHEAST ARIZONA

CITY           SKY/WX    TMP DP  RH WIND       PRES   REMARKS
WINSLOW        SUNNY     71  27  19 NW8G16    30.18F
SAINT JOHNS    SUNNY     67  26  21 NW13      30.18F
WINDOW ROCK    PTSUNNY   63  30  28 N10       30.22F
SHOW LOW       SUNNY     63  19  19 NW8G16    30.23S
$$

AZZ023-242100-
GREATER PHOENIX AREA

CITY           SKY/WX    TMP DP  RH WIND       PRES   REMARKS
PHOENIX        SUNNY     84  28  13 NW6       29.96F
BUCKEYE        SUNNY     82  36  18 SE6       29.99F
GLENDALE       SUNNY     84  32  15 SW3       29.99F
LUKE AFB       SUNNY     85  33  15 SW5       29.96F
DEER VALLEY    SUNNY     83  34  17 VRB6      29.97F
SCOTTSDALE     SUNNY     84  28  13 VRB6      30.00F
MESA-FALCON    SUNNY    N/A N/A N/A W9        29.96F
MESA-GATEWAY   SUNNY     82  27  13 W6        30.00F
CHANDLER       SUNNY     84  21  10 SW9       29.99F
$$

AZZ027-028-242100-
SOUTHWEST MARICOPA COUNTY AND PINAL COUNTY

CITY           SKY/WX    TMP DP  RH WIND       PRES   REMARKS
CASA GRANDE    SUNNY     82  23  11 W3        30.01F
GILA BEND      FAIR      85  25  11 VRB5      29.96F
$$

AZZ503-504-507>509-242100-
SOUTHEAST ARIZONA

CITY           SKY/WX    TMP DP  RH WIND       PRES   REMARKS
TUCSON         SUNNY     84  39  20 W7G17     30.03F
DAVIS-MONTHAN  SUNNY     83  43  24 NW7       30.02F
RYAN FIELD     SUNNY     82  36  18 NW13      30.03F
NOGALES        MOSUNNY   79  48  33 CALM      30.08F
SIERRA VISTA   MOSUNNY   77  46  33 W12G20    30.12F
DOUGLAS        SUNNY     79  46  31 MISG      30.08F
SAFFORD        SUNNY     77  38  24 VRB3      30.03F
$$

AZZ020-021-025-026-031-242100-
SOUTHWEST ARIZONA

CITY           SKY/WX    TMP DP  RH WIND       PRES   REMARKS
YUMA           SUNNY     92  26   9 NW8       29.96
$$

CAZ031-033-041-043-047-048-061-242100-
SOUTHERN CALIFORNIA

CITY           SKY/WX    TMP DP  RH WIND       PRES   REMARKS
DOWNTOWN L.A.  SUNNY     88  48  25 VRB5      29.97F
L.A. AIRPORT   SUNNY     78  56  46 W10       29.99F
SAN DIEGO      SUNNY     82  50  32 NW12      29.99F
BURBANK        SUNNY     90  27  10 VRB6      30.00F
ONTARIO        SUNNY     92  27   9 W8        30.00F
RIVERSIDE      SUNNY     94  32  11 N8G23     29.98F
PALM SPRINGS   SUNNY     93  35  13 S7        30.00F
EL CENTRO NAS  SUNNY     93  25   8 NE8       29.98F
IMPERIAL       SUNNY     93  36  13 VRB7      29.96F
BLYTHE         SUNNY     91  26   9 NW12G17   29.98F
NEEDLES        SUNNY     91  32  12 N22G31    30.02F
$$

NVZ020-UTZ003-242100-
SOUTHERN NEVADA-UTAH

CITY           SKY/WX    TMP DP  RH WIND       PRES   REMARKS
LAS VEGAS      SUNNY     83  26  12 N9G18     30.10F
SALT LAKE CITY PTSUNNY   60  45  57 NW8       30.26S
$$

NMZ009-TXZ055-242100-
NEW MEXICO-WEST TEXAS

CITY           SKY/WX    TMP DP  RH WIND       PRES   REMARKS
ALBUQUERQUE    MOSUNNY   69  27  20 VRB7      30.14F
EL PASO        MOSUNNY   80  46  30 W13G24    30.04F
$$


........................KEY........................
SKY/WX - SKY CONDITION/WEATHER
TMP    - TEMPERATURE IN FAHRENHEIT
DP     - DEW POINT IN FAHRENHEIT
RH     - RELATIVE HUMIDITY IN PERCENT
WIND   - DIRECTION AND SPEED IN MILES PER HOUR (MPH)
VRB    - VARIABLE WIND DIRECTION
PRES   - MEAN SEA LEVEL PRESSURE IN INCHES OF MERCURY
         F - FALLING PRESSURE   R - RISING PRESSURE
         S - STEADY PRESSURE
VSB    - VISIBILITY IN MILES
HX     - HEAT INDEX IN FAHRENHEIT
WCI    - WIND CHILL INDEX IN FAHRENHEIT
TC     - TEMPERATURE IN CELSIUS WHICH IS ALSO KNOWN AS
         TEMPERATURE IN CENTIGRADE
AFB    - AIR FORCE BASE
         LUKE AFB IS LUKE AIR FORCE BASE
         DAVIS-MONTHAN IS DAVIS-MONTHAN AIR FORCE BASE
NAS    - NAVAL AIR STATION
         EL CENTRO NAS IS EL CENTRO NAVAL AIR STATION
N/A    - NOT AVAILABLE





USA.gov is the U.S. government's official web portal to all federal, state and local government web resources and services.